Regional Weather Roundup
Issued by NWS

Home | Current Version | Previous Version | Graphics & Text | Print | Product List | Glossary On
Versions: 1 2 3 4 5 6 7 8 9 10 11 12 13 14 15 16 17 18 19 20 21 22 23 24 25 26 27 28 29 30 31 32 33 34 35 36 37 38 39 40 41 42 43 44 45 46 47 48 49 50
000
ASUS43 KBIS 181310
RWRND

NORTH DAKOTA REGIONAL WEATHER ROUNDUP
NATIONAL WEATHER SERVICE BISMARCK ND
700 AM CST SAT NOV 18 2017

NOTE: "FAIR" INDICATES FEW OR NO CLOUDS BELOW 12,000 FEET WITH NO
SIGNIFICANT WEATHER AND/OR OBSTRUCTIONS TO VISIBILITY.


NDZ001>003-009>011-017-181400-
NORTHWEST NORTH DAKOTA

CITY           SKY/WX    TMP DP  RH WIND       PRES   REMARKS
WILLISTON      CLEAR     12   7  80 W9        30.09R WCI   0
MINOT          FLURRIES  16  10  77 NW22G28   30.02R WCI  -2
MINOT AFB      MOCLDY    13   9  82 NW15      30.01R WCI  -3
$$

NDZ018>021-031>035-040>046-181400-
SOUTHWEST NORTH DAKOTA

CITY           SKY/WX    TMP DP  RH WIND       PRES   REMARKS
BISMARCK       CLEAR     20  14  77 NW10      30.05R WCI   9
DICKINSON      CLEAR     12   8  84 NW13      30.02R WCI  -3
GARRISON         N/A     14   9  80 NW18      30.02S WCI  -3
HETTINGER ARPT CLEAR     15  12  88 NW8       30.06R WCI   4
$$

NDZ004>008-012>016-024-026-027-054-181400-
NORTHEAST NORTH DAKOTA

CITY           SKY/WX    TMP DP  RH WIND       PRES   REMARKS
GRAND FORKS    MOCLDY    17  11  77 NW9       29.95R WCI   6
GRND FRKS AFB  FLURRIES  16   9  73 NW10      29.95R WCI   3
DEVILS LAKE    MOCLDY    13   9  84 NW21      29.96R WCI  -5
$$

NDZ022-023-025-028>030-036>039-047>053-181400-
SOUTHEAST NORTH DAKOTA

CITY           SKY/WX    TMP DP  RH WIND       PRES   REMARKS
FARGO          CLOUDY    21  15  78 NW14      29.93R WCI   8
JAMESTOWN      PTCLDY    18  12  77 NW23      29.96R WCI   0
$$





USA.gov is the U.S. government's official web portal to all federal, state and local government web resources and services.